Regional Weather Roundup
Issued by NWS Little Rock, AR

Home | Current Version | Previous Version | Text Only | Print | Product List | Glossary Off
Versions: 1 2 3 4 5 6 7 8 9 10 11 12 13 14 15 16 17 18 19 20 21 22 23 24 25 26 27 28 29 30 31 32 33 34 35 36 37 38 39 40 41 42 43 44 45 46 47 48 49 50

000
ASUS44 KLZK 201805
RWRLZK

WEATHER ROUNDUP FOR ARKANSAS
NATIONAL WEATHER SERVICE LITTLE ROCK AR
100 PM CDT WED AUG 20 2014

NOTE: "FAIR" INDICATES FEW OR NO CLOUDS BELOW 12,000 FEET WITH NO
SIGNIFICANT WEATHER AND/OR OBSTRUCTIONS TO VISIBILITY.

ARZ001-003-010-029-201900-
NORTHWEST ARKANSAS

CITY           SKY/WX    TMP DP  RH WIND       PRES   REMARKS
FAYETTEVILLE   SUNNY     87  64  46 SW12G21   30.02F HX  88
6HR MIN TEMP:  71; 6HR MAX TEMP:  88;

FORT SMITH     SUNNY     91  66  43 SW16      29.99F HX  93
6HR MIN TEMP:  73; 6HR MAX TEMP:  91;

HARRISON       SUNNY     88  71  57 S10       30.03S HX  94
6HR MIN TEMP:  73; 6HR MAX TEMP:  89;

BENTONVILLE    SUNNY     90  70  51 SW10G16   30.03S HX  95
6HR MIN TEMP:  73; 6HR MAX TEMP:  90;

ROGERS         SUNNY     88  67  49 SW14G20   30.02F HX  91
6HR MIN TEMP:  74; 6HR MAX TEMP:  91;

SILOAM SPGS    MOSUNNY   86  68  54 S12G22    30.02S HX  89
6HR MIN TEMP:  73; 6HR MAX TEMP:  88;

HIGHFILL       MOSUNNY   87  67  51 S15       30.01F HX  90
6HR MIN TEMP:  70; 6HR MAX TEMP:  89; 6HR PCP: TRACE;

SPRINGDALE     MOSUNNY   88  70  55 SW14      30.04S HX  92
$$

ARZ004-005-016-201900-
NORTH CENTRAL ARKANSAS

CITY           SKY/WX    TMP DP  RH WIND       PRES   REMARKS
BATESVILLE     SUNNY     95  68  41 SW12G20   29.99S HX  99
6HR MIN TEMP:  77; 6HR MAX TEMP:  95;

FLIPPIN        SUNNY     93  66  40 S8        30.00S HX  96
6HR MIN TEMP:  72; 6HR MAX TEMP:  93;

MTN HOME       MOSUNNY   94  68  42 SW12G17   30.00S HX  98
6HR MIN TEMP:  75; 6HR MAX TEMP:  94;

$$

ARZ040-041-201900-
WEST CENTRAL ARKANSAS

CITY           SKY/WX    TMP DP  RH WIND       PRES   REMARKS
MENA           SUNNY     88  72  58 CALM      30.05F HX  94
MOUNT IDA      SUNNY     88  69  53 VRB5      30.02F HX  92
6HR MIN TEMP:  70; 6HR MAX TEMP:  88;

$$

ARZ009-017-025-026-028-201900-
NORTHEAST ARKANSAS

CITY           SKY/WX    TMP DP  RH WIND       PRES   REMARKS
CORNING        LGT RAIN  93  75  55 SW8       30.00R HX 104
JONESBORO      SUNNY     93  72  50 SW14G20   30.00S HX 101
6HR MIN TEMP:  77; 6HR MAX TEMP:  93;

NEWPORT        SUNNY     93  75  55 S9        30.01S HX 104
6HR MIN TEMP:  76; 6HR MAX TEMP:  94;

WALNUT RIDGE   SUNNY     91  72  52 S12       29.98S HX  98
6HR MIN TEMP:  75; 6HR MAX TEMP:  91;

BLYTHEVILLE    SUNNY     91  77  63 SW8       30.01S HX 104
6HR MIN TEMP:  77; 6HR MAX TEMP:  91;

$$

ARZ022-023-033-042-044-201900-
CENTRAL ARKANSAS

CITY           SKY/WX    TMP DP  RH WIND       PRES   REMARKS
LITTLE ROCK    SUNNY     90  70  51 S10       30.02F HX  95
6HR MIN TEMP:  75; 6HR MAX TEMP:  90;

N LITTLE ROCK  SUNNY     89  71  55 W7        30.02F HX  96
6HR MIN TEMP:  76; 6HR MAX TEMP:  90;

JACKSONVILLE   SUNNY     90  72  55 SW10      30.02F HX  97
6HR MIN TEMP:  75; 6HR MAX TEMP:  90;

SEARCY           N/A     92  76  59 CALM        N/A  HX 104
6HR MIN TEMP:  74; 6HR MAX TEMP:  92;

HOT SPRINGS    SUNNY     88  72  58 W7        30.04F HX  94
6HR MIN TEMP:  73; 6HR MAX TEMP:  88;

RUSSELLVILLE   SUNNY     90  70  51 VRB7      30.01F HX  95
6HR MIN TEMP:  74; 6HR MAX TEMP:  91;

CLINTON        FAIR      93  73  52 SW6       30.00F HAZE    HX 102
$$

ARZ036-201900-
EAST ARKANSAS

CITY           SKY/WX    TMP DP  RH WIND       PRES   REMARKS
WEST MEMPHIS   SUNNY     91  73  55 SW12G18   30.01F HX  99
6HR MIN TEMP:  76; 6HR MAX TEMP:  91;

$$

ARZ050-053-066-070-073-201900-
SOUTHWEST ARKANSAS

CITY           SKY/WX    TMP DP  RH WIND       PRES   REMARKS
ARKADELPHIA    FAIR      90  75  61 SW7       30.04S HX 100
6HR MIN TEMP:  71; 6HR MAX TEMP:  90;

CAMDEN         MOSUNNY   91  73  55 SW6       30.04S HX 100
TEXARKANA      SUNNY     87  72  60 VRB3      30.03F HX  93
6HR MIN TEMP:  72; 6HR MAX TEMP:  87;

EL DORADO      MOSUNNY   88  75  65 SW3       30.05S HX  97
6HR MIN TEMP:  69; 6HR MAX TEMP:  89;

DE QUEEN       MOSUNNY   87  74  64 VRB3      30.01F HX  95
6HR MIN TEMP:  70; 6HR MAX TEMP:  87;

$$

ARZ056-057-069-201900-
SOUTHEAST ARKANSAS

CITY           SKY/WX    TMP DP  RH WIND       PRES   REMARKS
PINE BLUFF     SUNNY     89  71  55 SW10      30.04F HX  95
6HR MIN TEMP:  73; 6HR MAX TEMP:  89;

STUTTGART      SUNNY     90  73  58 SW13      30.05S HX  98
6HR MIN TEMP:  73; 6HR MAX TEMP:  90;

MONTICELLO     MOSUNNY   89  73  59 SW9       30.05F HX  97
6HR MIN TEMP:  73; 6HR MAX TEMP:  89;


$$





USA.gov is the U.S. government's official web portal to all federal, state and local government web resources and services.